Melilla, Spain

2:24 AM CEST on August 31, 2016 (GMT +0200)
Melilla

Weather History for GEML - November, 2013

Change the Weather History Date:

Sunday, November 10, 2013

  Actual Average Record
Temperature  
Mean Temperature 64 °F -  
Max Temperature 74 °F 67 °F 78 °F (2002)
Min Temperature 55 °F 56 °F 44 °F (2001)
Growing Degree Days 14 (Base 50)    
Moisture  
Dew Point 49 °F    
Average Humidity 55    
Maximum Humidity 86    
Minimum Humidity 33    
Precipitation  
Precipitation 0.00 in 0.06 in - ()
Sea Level Pressure  
Sea Level Pressure 30.27 in    
Wind  
Wind Speed 4 mph ()    
Max Wind Speed 9 mph    
Max Gust Speed -    
Visibility 10.5 miles    
Events      
Averages and records for this station are not official NWS values.
T = Trace of Precipitation, MM = Missing Value Source: Averaged Metar Reports

Daily Weather History Graph

Daily Weather History Graph

Search for Another Location

Airport or City:

Trip Planner

Search our weather history database for the weather conditions in past years. The results will help you decide how hot, cold, wet, or windy it might be!

Date:

Astronomy

Nov. 10, 2013 Rise Set
Actual Time 7:41 AM CET 6:09 PM CET
Civil Twilight 7:15 AM CET 6:35 PM CET
Nautical Twilight 6:44 AM CET 7:06 PM CET
Astronomical Twilight 6:14 AM CET 7:36 PM CET
Moon 1:51 PM CET (11/10) 12:20 AM CET (11/10)
Length of Visible Light 11h 20m
Length of Day
10h 27m
First Quarter, 52% of the Moon is Illuminated
Nov 10
First Quarter
Nov 17
Full
Nov 25
Last Quarter
Dec 3
New
Dec 9
First Quarter

Hourly Weather History & Observations

Time (CET) Temp. Dew Point Humidity Pressure Visibility Wind Dir Wind Speed Gust Speed Precip Events Conditions
6:00 AM 60.8 °F 48.2 °F 63% 30.27 in - SW 3.5 mph - N/A   Clear
6:30 AM 59.0 °F 48.2 °F 67% 30.27 in - WSW 4.6 mph - N/A   Clear
7:00 AM 59 °F 49 °F 60% 30.29 in 9 mi WSW 2.3 mph - -  
7:00 AM 59.0 °F 44.6 °F 59% 30.27 in - Variable 2.3 mph - N/A   Clear
7:30 AM 55.4 °F 46.4 °F 72% 30.27 in - NW 5.8 mph - N/A   Clear
8:00 AM 57.2 °F 46.4 °F 67% 30.30 in - Variable 2.3 mph - N/A   Clear
8:30 AM 57.2 °F 48.2 °F 72% 30.30 in - NW 4.6 mph - N/A   Clear
9:00 AM 64.4 °F 48.2 °F 56% 30.30 in - Variable 1.2 mph - N/A   Clear
9:30 AM 68.0 °F 46.4 °F 46% 30.30 in - West 4.6 mph - N/A   Clear
10:00 AM 68.0 °F 48.2 °F 49% 30.33 in - West 5.8 mph - N/A   Clear
10:30 AM 69.8 °F 48.2 °F 46% 30.30 in - West 4.6 mph - N/A   Clear
11:00 AM 71.6 °F 46.4 °F 41% 30.30 in - West 4.6 mph - N/A   Clear
11:30 AM 71.6 °F 44.6 °F 38% 30.30 in - WNW 1.2 mph - N/A   Clear
12:00 PM 71.6 °F 44.6 °F 38% 30.33 in - NW 6.9 mph - N/A   Clear
12:30 PM 71.6 °F 44.6 °F 38% 30.30 in - NW 8.1 mph - N/A   Clear
1:00 PM 71 °F 48 °F 33% 30.30 in 31 mi WNW 4.6 mph - -   Clear
1:00 PM 71.6 °F 42.8 °F 35% 30.30 in - WNW 4.6 mph - N/A   Clear
1:30 PM 71.6 °F 44.6 °F 38% 30.27 in - NE 2.3 mph - N/A   Clear
2:00 PM 71.6 °F 44.6 °F 38% 30.27 in - West 4.6 mph - N/A   Clear
2:30 PM 71.6 °F 46.4 °F 41% 30.24 in - WNW 6.9 mph - N/A   Clear
3:00 PM 71.6 °F 48.2 °F 43% 30.24 in - WNW 9.2 mph - N/A   Clear
3:30 PM 71.6 °F 48.2 °F 43% 30.24 in - WNW 8.1 mph - N/A   Clear
4:00 PM 69.8 °F 53.6 °F 56% 30.24 in - WNW 9.2 mph - N/A   Clear
4:30 PM 69.8 °F 55.4 °F 60% 30.24 in - West 8.1 mph - N/A   Clear
5:00 PM 68.0 °F 55.4 °F 64% 30.24 in - West 6.9 mph - N/A   Clear
5:30 PM 68.0 °F 53.6 °F 60% 30.24 in - West 8.1 mph - N/A   Clear
6:00 PM 66.2 °F 55.4 °F 68% 30.24 in - West 6.9 mph - N/A   Clear
6:30 PM 66.2 °F 57.2 °F 73% 30.24 in - West 5.8 mph - N/A   Clear
7:00 PM 64 °F 61 °F 86% 30.25 in 12 mi West 5.8 mph - -   Clear
7:00 PM 64.4 °F 57.2 °F 77% 30.24 in - West 5.8 mph - N/A   Clear
7:30 PM 64.4 °F 53.6 °F 68% 30.24 in - Variable 2.3 mph - N/A   Clear